Location: Unspecified
(0.0000°N, 0.0000°E)
Time: 04:55:02
(UTC+00:00)

Vanguard 1 - Pass Details

Date: 17 December 2023
Orbit: 653 x 3826 km, 34.3° (Epoch: 22 February)

Event Time Altitude Azimuth Distance (km) Brightness Sun altitude
Rises 13:52:48 0° 296° (WNW) 3,445 13.1 53.3°
Reaches altitude 10° 13:58:25 10° 339° (NNW) 3,094 12.6 52.2°
Maximum altitude 13:59:22 10° 347° (NNW) 3,185 12.6 52.0°
Drops below altitude 10° 14:00:22 10° 354° (N) 3,321 12.7 51.8°
Sets 14:08:50 0° 32° (NNE) 5,329 13.5 50.2°
